Regional Weather Roundup
Issued by NWS

Home | Current Version | Previous Version | Text Only | Print | Product List | Glossary Off
Versions: 1 2 3 4 5 6 7 8 9 10 11 12 13 14 15 16 17 18 19 20 21 22 23 24 25 26 27 28 29 30 31 32 33 34 35 36 37 38 39 40 41 42 43 44 45 46 47 48 49 50

000
ASUS43 KBIS 062202
RWRND

NORTH DAKOTA REGIONAL WEATHER ROUNDUP
NATIONAL WEATHER SERVICE BISMARCK ND
400 PM CST SAT FEB 06 2016

NOTE: "FAIR" INDICATES FEW OR NO CLOUDS BELOW 12,000 FEET WITH NO
SIGNIFICANT WEATHER AND/OR OBSTRUCTIONS TO VISIBILITY.


NDZ001>003-009>011-017-062300-
NORTHWEST NORTH DAKOTA

CITY           SKY/WX    TMP DP  RH WIND       PRES   REMARKS
WILLISTON      SUNNY     48  26  42 W29G40    29.64S
MINOT          CLOUDY    49  30  48 SW15G21   29.58F
MINOT AFB      CLOUDY    47  31  54 W18G26    29.56F
$$

NDZ018>021-031>035-040>046-062300-
SOUTHWEST NORTH DAKOTA

CITY           SKY/WX    TMP DP  RH WIND       PRES   REMARKS
BISMARCK       CLOUDY    53  28  38 N7G21     29.69F
DICKINSON      MOSUNNY   49  19  30 W35G48    29.70R
GARRISON         N/A     51  25  36 W28G40    29.64F
HETTINGER ARPT MOSUNNY   50  14  23 W38G61    29.79R
$$

NDZ004>008-012>016-024-026-027-054-062300-
NORTHEAST NORTH DAKOTA

CITY           SKY/WX    TMP DP  RH WIND       PRES   REMARKS
GRAND FORKS    CLOUDY    38  32  79 S12       29.59F
GRND FRKS AFB  CLOUDY    38  32  79 S12       29.59F
DEVILS LAKE    CLOUDY    40  30  67 SW17      29.57S
$$

NDZ022-023-025-028>030-036>039-047>053-062300-
SOUTHEAST NORTH DAKOTA

CITY           SKY/WX    TMP DP  RH WIND       PRES   REMARKS
FARGO          CLOUDY    39  32  76 S9        29.66F
JAMESTOWN      CLOUDY    43  30  60 W15       29.65R
$$




USA.gov is the U.S. government's official web portal to all federal, state and local government web resources and services.